Location: Windsor
(43.2292°N, 89.3015°W)
Time: 03:08:19
(UTC+00:00)

X-37B - Pass Details

Date: 04 December 2023
Orbit: 277 x 277 km, 45.0° (Epoch: 01 November)

Event Time Altitude Azimuth Distance (km) Brightness Sun altitude
Rises 00:34:37 0° 277° (W) 1,915 5.4 -23.4°
Reaches altitude 10° 00:36:33 10° 283° (WNW) 1,102 3.8 -23.8°
Enters shadow 00:36:55 13° 285° (WNW) 953 3.4 -23.8°
